Location: Dead Woman Crossing
(43.5369°N, 106.3228°W)
Time: 22:04:01
(UTC+00:00)

O/OREOS (USA 219) - Pass Details

Date: 08 July 2022
Orbit: 621 x 646 km, 72.0° (Epoch: 22 May)

Event Time Altitude Azimuth Distance (km) Brightness Sun altitude
Rises 04:50:24 0° 348° (NNW) 2,966 ? -16.6°
Reaches altitude 10° 04:53:16 10° 6° (N) 2,053 ? -16.9°
Maximum altitude 04:56:36 19° 53° (NE) 1,523 ? -17.2°
Enters shadow 04:59:01 14° 90° (E) 1,815 ? -17.4°
